Tillbaka till svenska Fidonet
English   Information   Debug  
FILM   0/18
FNEWS_PUBLISH   4983
FN_SYSOP   42232
FN_SYSOP_OLD1   71952
FTP_FIDO   0/2
FTSC_PUBLIC   0/13976
FUNNY   0/4886
GENEALOGY.EUR   0/71
GET_INFO   105
GOLDED   0/408
HAM   1750/16712
HOLYSMOKE   0/6791
HOT_SITES   0/1
HTMLEDIT   0/71
HUB203   466
HUB_100   264
HUB_400   39
HUMOR   0/29
IC   0/2851
INTERNET   0/424
INTERUSER   0/3
IP_CONNECT   719
JAMNNTPD   0/233
JAMTLAND   0/47
KATTY_KORNER   0/41
LAN   0/16
LINUX-USER   0/19
LINUXHELP   0/1155
LINUX   0/22382
LINUX_BBS   0/957
mail   18.68
mail_fore_ok   249
MENSA   0/341
MODERATOR   0/102
MONTE   0/992
MOSCOW_OKLAHOMA   0/1245
MUFFIN   0/783
MUSIC   0/321
N203_STAT   938
N203_SYSCHAT   313
NET203   321
NET204   69
NET_DEV   0/10
NORD.ADMIN   0/101
NORD.CHAT   0/2572
NORD.FIDONET   189
NORD.HARDWARE   0/28
NORD.KULTUR   0/114
NORD.PROG   0/32
NORD.SOFTWARE   0/88
NORD.TEKNIK   0/58
NORD   0/453
OCCULT_CHAT   0/93
OS2BBS   0/787
OS2DOSBBS   0/580
OS2HW   0/42
OS2INET   0/37
OS2LAN   0/134
OS2PROG   0/36
OS2REXX   0/113
OS2USER-L   207
OS2   0/4831
OSDEBATE   0/18996
PASCAL   0/490
PERL   0/457
PHP   0/45
POINTS   0/405
POLITICS   0/29554
POL_INC   0/14731
PSION   103
R20_ADMIN   1133
R20_AMATORRADIO   0/2
R20_BEST_OF_FIDONET   16
R20_CHAT   0/897
R20_DEPP   0/3
R20_DEV   400
R20_ECHO2   1889
R20_ECHOPRES   0/35
R20_ESTAT   0/719
R20_FIDONETPROG...
...RAM.MYPOINT
  0/2
R20_FIDONETPROGRAM   0/22
R20_FIDONET   0/248
R20_FILEFIND   0/24
R20_FILEFOUND   0/22
R20_HIFI   0/3
R20_INFO2   3781
R20_INTERNET   0/12940
R20_INTRESSE   0/60
R20_INTR_KOM   0/99
R20_KANDIDAT.CHAT   42
R20_KANDIDAT   28
R20_KOM_DEV   112
R20_KONTROLL   0/13360
R20_KORSET   0/18
R20_LOKALTRAFIK   0/24
R20_MODERATOR   0/1852
R20_NC   76
R20_NET200   245
R20_NETWORK.OTH...
...ERNETS
  0/13
R20_OPERATIVSYS...
...TEM.LINUX
  0/44
R20_PROGRAMVAROR   0/1
R20_REC2NEC   534
R20_SFOSM   0/341
R20_SF   0/108
R20_SPRAK.ENGLISH   0/1
R20_SQUISH   107
R20_TEST   2
R20_WORST_OF_FIDONET   20
RAR   0/9
RA_MULTI   106
RA_UTIL   0/162
REGCON.EUR   0/2069
REGCON   0/13
SCIENCE   0/1206
SF   0/239
SHAREWARE_SUPPORT   0/5146
SHAREWRE   0/14
SIMPSONS   0/169
STATS_OLD1   0/2539.065
STATS_OLD2   0/2530
STATS_OLD3   0/2395.095
STATS_OLD4   0/1692.25
SURVIVOR   0/495
SYSOPS_CORNER   0/3
SYSOP   0/84
TAGLINES   0/112
TEAMOS2   0/4530
TECH   0/2617
TEST.444   0/105
TRAPDOOR   0/19
TREK   0/755
TUB   0/290
UFO   0/40
UNIX   0/1316
USA_EURLINK   0/102
USR_MODEMS   0/1
VATICAN   0/2740
VIETNAM_VETS   0/14
VIRUS   0/378
VIRUS_INFO   0/201
VISUAL_BASIC   0/473
WHITEHOUSE   65/5187
WIN2000   0/101
WIN32   0/30
WIN95   0/4291
WIN95_OLD1   0/70272
WINDOWS   0/1517
WWB_SYSOP   0/419
WWB_TECH   0/810
ZCC-PUBLIC   0/1
ZEC   4

 
4DOS   0/134
ABORTION   0/7
ALASKA_CHAT   0/506
ALLFIX_FILE   0/1313
ALLFIX_FILE_OLD1   0/7997
ALT_DOS   0/152
AMATEUR_RADIO   0/1039
AMIGASALE   0/14
AMIGA   0/331
AMIGA_INT   0/1
AMIGA_PROG   0/20
AMIGA_SYSOP   0/26
ANIME   0/15
ARGUS   0/924
ASCII_ART   0/340
ASIAN_LINK   0/651
ASTRONOMY   0/417
AUDIO   0/92
AUTOMOBILE_RACING   0/105
BABYLON5   0/17862
BAG   135
BATPOWER   0/361
BBBS.ENGLISH   0/382
BBSLAW   0/109
BBS_ADS   0/5290
BBS_INTERNET   0/507
BIBLE   0/3563
BINKD   0/1119
BINKLEY   0/215
BLUEWAVE   0/2173
CABLE_MODEMS   0/25
CBM   0/46
CDRECORD   0/66
CDROM   0/20
CLASSIC_COMPUTER   0/378
COMICS   0/15
CONSPRCY   0/899
COOKING   42003
COOKING_OLD1   0/24719
COOKING_OLD2   0/40862
COOKING_OLD3   0/37489
COOKING_OLD4   0/35496
COOKING_OLD5   9370
C_ECHO   0/189
C_PLUSPLUS   0/31
DIRTY_DOZEN   0/201
DOORGAMES   0/2333
DOS_INTERNET   0/196
duplikat   6102
ECHOLIST   0/18295
EC_SUPPORT   0/318
ELECTRONICS   0/359
ELEKTRONIK.GER   1534
ENET.LINGUISTIC   0/13
ENET.POLITICS   0/4
ENET.SOFT   0/11701
ENET.SYSOP   34332
ENET.TALKS   0/32
ENGLISH_TUTOR   0/2000
EVOLUTION   0/1335
FDECHO   0/217
FDN_ANNOUNCE   0/7068
FIDONEWS   25122
FIDONEWS_OLD1   0/49742
FIDONEWS_OLD2   0/35949
FIDONEWS_OLD3   0/30874
FIDONEWS_OLD4   0/37224
FIDO_SYSOP   12973
FIDO_UTIL   0/180
FILEFIND   0/209
FILEGATE   0/212
Möte HAM, 16712 texter
 lista första sista föregående nästa
Text 5483, 993 rader
Skriven 2012-08-24 01:00:39 av Amsat List (1:323/120.0)
Ärende: [keps] orb122336.amsa
=============================
[keps] orb122336.amsa

Sender: keps-bounces@amsat.org
Return-Path: <keps-bounces@amsat.org>
X-Rcpt: craig.healy@chowda.com
X-UIDL: 1345783686.7564

SB KEPS @ AMSAT  $ORB12236.O
Orbital Elements  12236.OSCAR

HR AMSAT ORBITAL ELEMENTS FOR OSCAR SATELLITES
FROM WA5QGD FORT WORTH,TX August 23, 2012
Send SUBSCRIBE KEPS/UNSUBSCRIBE KEPS to majordomo@amsat.org only
BID: ORB12236.O
TO ALL RADIO AMATEURS BT

Satellite: AO-07
Catalog number: 07530
Epoch time:      12235.62333453
Element set:     462
Inclination:      101.4074 deg
RA of node:       230.2806 deg
Eccentricity:    0.0011764
Arg of perigee:   150.9096 deg
Mean anomaly:     209.2634 deg
Mean motion:   12.53590864 rev/day
Decay rate:       -2.7e-07 rev/day^2
Epoch rev:           72837
Checksum:              280

Satellite: FO-29
Catalog number: 24278
Epoch time:      12236.84898560
Element set:     920
Inclination:      098.5862 deg
RA of node:       328.6599 deg
Eccentricity:    0.0350212
Arg of perigee:   214.0142 deg
Mean anomaly:     143.8100 deg
Mean motion:   13.52987067 rev/day
Decay rate:        5.2e-07 rev/day^2
Epoch rev:           79110
Checksum:              315

Satellite: SO-33
Catalog number: 25509
Epoch time:      12235.64685943
Element set:    0307
Inclination:      031.4332 deg
RA of node:       317.5700 deg
Eccentricity:    0.0351918
Arg of perigee:   064.9355 deg
Mean anomaly:     298.7371 deg
Mean motion:   14.28802071 rev/day
Decay rate:       2.18e-06 rev/day^2
Epoch rev:           72216
Checksum:              302

Satellite: RS-22
Catalog number: 27939
Epoch time:      12236.79431604
Element set:     658
Inclination:      097.8082 deg
RA of node:       074.1316 deg
Eccentricity:    0.0014555
Arg of perigee:   053.2730 deg
Mean anomaly:     306.9814 deg
Mean motion:   14.64100345 rev/day
Decay rate:       2.77e-06 rev/day^2
Epoch rev:           47577
Checksum:              312

Satellite: VO-52
Catalog number: 28650
Epoch time:      12235.64792800
Element set:    0189
Inclination:      097.5928 deg
RA of node:       263.3452 deg
Eccentricity:    0.0026245
Arg of perigee:   180.0854 deg
Mean anomaly:     180.0366 deg
Mean motion:   14.83111344 rev/day
Decay rate:       8.91e-06 rev/day^2
Epoch rev:           39482
Checksum:              313

Satellite: HO-68
Catalog number: 36122
Epoch time:      12236.78598189
Element set:     765
Inclination:      100.3547 deg
RA of node:       294.7511 deg
Eccentricity:    0.0007239
Arg of perigee:   317.1201 deg
Mean anomaly:     042.9343 deg
Mean motion:   13.16297551 rev/day
Decay rate:       -4.4e-07 rev/day^2
Epoch rev:           12928
Checksum:              307

/EX
SB KEPS @ AMSAT  $ORB12236.D
Orbital Elements  12236.MICROS

HR AMSAT ORBITAL ELEMENTS FOR THE MICROSATS
FROM WA5QGD FORT WORTH,TX August 23, 2012
Send SUBSCRIBE KEPS/UNSUBSCRIBE KEPS to majordomo@amsat.org only
BID: ORB12236.D
TO ALL RADIO AMATEURS BT

Satellite: UO-11
Catalog number: 14781
Epoch time:      12236.84202552
Element set:     956
Inclination:      097.9487 deg
RA of node:       295.7503 deg
Eccentricity:    0.0009227
Arg of perigee:   166.4177 deg
Mean anomaly:     193.7263 deg
Mean motion:   14.80525979 rev/day
Decay rate:       -1.2e-07 rev/day^2
Epoch rev:           52994
Checksum:              337

Satellite: AO-16
Catalog number: 20439
Epoch time:      12236.86059347
Element set:     541
Inclination:      098.4344 deg
RA of node:       178.3536 deg
Eccentricity:    0.0010615
Arg of perigee:   324.2630 deg
Mean anomaly:     035.7843 deg
Mean motion:   14.32075557 rev/day
Decay rate:        7.5e-07 rev/day^2
Epoch rev:           17968
Checksum:              312

Satellite: LO-19
Catalog number: 20442
Epoch time:      12235.89533376
Element set:     470
Inclination:      098.4000 deg
RA of node:       180.1884 deg
Eccentricity:    0.0011424
Arg of perigee:   317.6840 deg
Mean anomaly:     042.3455 deg
Mean motion:   14.32292306 rev/day
Decay rate:        7.3e-07 rev/day^2
Epoch rev:           17973
Checksum:              285

Satellite: AO-27
Catalog number: 22825
Epoch time:      12236.72192828
Element set:     179
Inclination:      098.5753 deg
RA of node:       178.4983 deg
Eccentricity:    0.0009404
Arg of perigee:   082.2916 deg
Mean anomaly:     277.9335 deg
Mean motion:   14.29478856 rev/day
Decay rate:        5.4e-07 rev/day^2
Epoch rev:           98612
Checksum:              356

Satellite: IO-26
Catalog number: 22826
Epoch time:      12235.87005897
Element set:    0945
Inclination:      098.5714 deg
RA of node:       178.0129 deg
Eccentricity:    0.0009905
Arg of perigee:   077.8796 deg
Mean anomaly:     282.3493 deg
Mean motion:   14.29753838 rev/day
Decay rate:        5.3e-07 rev/day^2
Epoch rev:           98613
Checksum:              359

Satellite: GO-32
Catalog number: 25397
Epoch time:      12235.62038030
Element set:    0856
Inclination:      098.3699 deg
RA of node:       211.0828 deg
Eccentricity:    0.0002252
Arg of perigee:   084.8620 deg
Mean anomaly:     275.2828 deg
Mean motion:   14.23287490 rev/day
Decay rate:       -3.6e-07 rev/day^2
Epoch rev:           73347
Checksum:              309

Satellite: NO-44
Catalog number: 26931
Epoch time:      12235.70346304
Element set:     118
Inclination:      067.0546 deg
RA of node:       308.9058 deg
Eccentricity:    0.0007015
Arg of perigee:   255.4364 deg
Mean anomaly:     104.5960 deg
Mean motion:   14.29822747 rev/day
Decay rate:       1.82e-06 rev/day^2
Epoch rev:           56875
Checksum:              305

